Simultaneous Nadir Overpasses (SNOs) Predictions

Prediction of SNOs between GOES-16 and METOP-C Satellite Orbit:

Table of predicted SNOs for the next 14.0 days since TLE Epoch: 6/16/2022
Index Date Time (GOES-16) GOES-16 Lat,Lon METOP-C Lat,Lon Distance(km) Time Diff (sec)
1 06/16/2022 02:29:46 -0.04, -75.19 0.14, -74.38 92.25 80
2 06/17/2022 14:45:57 0.03, -75.21 0.87, -78.94 425.27 80
3 06/18/2022 14:27:58 0.03, -75.22 -0.23, -73.95 144.14 80
4 06/20/2022 02:44:19 -0.03, -75.21 -0.79, -78.55 381.39 80
5 06/21/2022 02:26:21 -0.03, -75.22 0.37, -73.57 188.66 80
6 06/22/2022 14:42:32 0.02, -75.26 0.65, -78.13 327.16 80
7 06/23/2022 14:24:32 0.03, -75.27 -0.45, -73.13 243.37 80
8 06/25/2022 02:43:34 -0.02, -75.27 -0.55, -77.74 280.51 80
9 06/26/2022 02:20:14 -0.02, -75.29 0.56, -72.75 290.18 80
10 06/27/2022 14:39:06 0.02, -75.33 0.47, -77.31 225.04 80
11 06/28/2022 14:21:06 0.02, -75.35 -0.64, -72.31 345.83 80
